Location: Antioch Baptist Church
(32.7160°N, 96.7483°W)
Time: 19:02:29
(UTC+00:00)

Meteor 2-17 Rocket - Pass Details

Date: 05 December 2023
Orbit: 936 x 955 km, 82.5° (Epoch: 20 February)

Event Time Altitude Azimuth Distance (km) Brightness Sun altitude
Rises 11:57:37 0° 351° (N) 3,608 7.2 -15.9°
Reaches altitude 10° 12:00:06 10° 350° (N) 2,657 6.5 -15.3°
Maximum altitude 12:06:10 78° 266° (W) 960 4.3 -14.1°
Drops below altitude 10° 12:12:10 10° 181° (S) 2,636 7.0 -12.9°
Sets 12:14:38 0° 179° (S) 3,576 7.7 -12.4°
